EW5526 Weather Reports


time (UTC)temp
C
wind
direction
speed
KPH
gust
KPH
rain 1hr
cm
rain 24hr
cm
rain mn
cm
humidity
%
barometer
mb
20260504043034 11 74 1.6 3.2 0.00 0.00 0.00 88 1020.2
20260504040033 12 92 4.8 6.4 0.00 0.00 0.00 88 1019.8
20260504033032 12 112 3.2 16.1 0.00 0.00 0.00 88 1020.0
20260504030032 12 94 3.2 11.3 0.00 0.00 0.00 87 1020.0
20260504023031 12 98 6.4 9.7 0.00 0.00 0.00 87 1020.5
20260504020031 12 94 1.6 6.4 0.00 0.00 0.00 87 1020.6
20260504013030 12 92 0.0 3.2 0.00 0.00 0.00 86 1020.5
20260504010029 12 92 0.0 9.7 0.00 0.00 0.00 86 1020.4
20260504000029 12 113 0.0 3.2 0.00 0.00 0.00 84 1020.5
20260503233028 12 117 1.6 3.2 0.00 0.00 0.00 83 1020.8
20260503230028 12 119 6.4 8.0 0.00 0.00 0.00 83 1021.1
20260503223027 12 121 0.0 0.0 0.00 0.00 0.00 83 1021.2
20260503220027 12 121 0.0 0.0 0.00 0.00 0.00 82 1021.2
20260503210025 12 121 0.0 0.0 0.00 0.00 0.00 84 1021.2
20260503203024 13 121 0.0 0.0 0.00 0.00 0.00 82 1021.0
20260503200024 13 121 0.0 0.0 0.00 0.00 0.00 83 1020.8
20260503193024 13 121 1.6 6.4 0.00 0.00 0.00 82 1020.8
20260503190023 13 121 1.6 4.8 0.00 0.00 0.00 81 1020.6
20260503180022 15 123 3.2 8.0 0.00 0.00 0.00 74 1020.4
20260503173052 15 137 4.8 4.8 0.00 0.00 0.00 72 1020.1